FW4761 Weather Reports


Display with metric or nautical units.
time (UTC)temp
F
wind
direction
speed
MPH
gust
MPH
rain 1hr
in
rain 24hr
in
rain mn
in
humidity
%
barometer
mb
20260505012046 76 202 9.0 16.0 0.00 0.00 0.00 68 969.4
20260505010529 77 167 10.0 17.0 0.00 0.00 0.00 66 969.3
20260505005011 77 165 11.0 20.0 0.00 0.00 0.00 65 969.3
20260505004505 78 206 11.0 21.0 0.00 0.00 0.00 64 969.3
20260505003959 78 204 11.0 21.0 0.00 0.00 0.00 64 969.3
20260505003453 78 184 12.0 23.0 0.00 0.00 0.00 64 969.3
20260505002947 78 194 13.0 23.0 0.00 0.00 0.00 63 969.3
20260505001934 79 161 14.0 26.0 0.00 0.00 0.00 63 969.4
20260505001431 79 223 14.0 25.0 0.00 0.00 0.00 62 969.4
20260505000930 79 174 13.0 24.0 0.00 0.00 0.00 62 969.5
20260505000431 79 182 12.0 22.0 0.00 0.00 0.00 62 969.5
20260504235931 80 170 13.0 23.0 0.00 0.00 0.00 62 969.4
20260504235431 80 165 14.0 26.0 0.00 0.00 0.00 61 969.6
20260504234931 80 223 14.0 28.0 0.00 0.00 0.00 61 969.6
20260504233931 80 178 12.0 26.0 0.00 0.00 0.00 61 969.4
20260504232931 81 179 12.0 24.0 0.00 0.00 0.00 60 969.5
20260504231930 81 164 11.0 20.0 0.00 0.00 0.00 60 969.5
20260504230927 81 165 14.0 22.0 0.00 0.00 0.00 59 969.6
20260504225927 82 184 15.0 26.0 0.00 0.00 0.00 58 969.5
20260504225426 82 175 13.0 26.0 0.00 0.00 0.00 58 969.6
20260504224926 82 171 13.0 26.0 0.00 0.00 0.00 58 969.7
20260504224427 82 163 13.0 27.0 0.00 0.00 0.00 57 969.5
20260504223926 83 171 13.0 27.0 0.00 0.00 0.00 57 969.6
20260504222927 83 209 14.0 27.0 0.00 0.00 0.00 57 969.9
20260504222426 83 214 13.0 27.0 0.00 0.00 0.00 57 969.9
20260504221927 83 202 13.0 25.0 0.00 0.00 0.00 56 969.8
20260504221427 83 195 14.0 26.0 0.00 0.00 0.00 56 969.9
20260504220927 83 200 16.0 26.0 0.00 0.00 0.00 56 969.9
20260504220426 83 207 15.0 24.0 0.00 0.00 0.00 56 969.9
20260504214424 83 176 14.0 24.0 0.00 0.00 0.00 57 970.3
20260504213918 83 234 15.0 24.0 0.00 0.00 0.00 57 970.3
20260504213412 83 202 13.0 24.0 0.00 0.00 0.00 56 970.4
20260504212404 82 190 17.0 29.0 0.00 0.00 0.00 56 970.6
20260504211904 82 199 15.0 28.0 0.00 0.00 0.00 57 970.7
20260504211405 83 165 14.0 24.0 0.00 0.00 0.00 56 970.8
20260504210404 83 179 14.0 27.0 0.00 0.00 0.00 57 971.1
20260504205902 83 195 15.0 26.0 0.00 0.00 0.00 56 971.2
20260504205402 82 159 15.0 26.0 0.00 0.00 0.00 56 971.2
20260504204903 82 181 15.0 27.0 0.00 0.00 0.00 57 971.3
20260504203358 82 172 14.0 28.0 0.00 0.00 0.00 56 971.5
20260504202859 82 165 14.0 23.0 0.00 0.00 0.00 57 971.5
20260504202358 82 178 14.0 27.0 0.00 0.00 0.00 56 971.8
20260504201859 82 180 14.0 27.0 0.00 0.00 0.00 56 972.0
20260504201357 82 190 14.0 27.0 0.00 0.00 0.00 57 972.2
20260504200856 82 178 15.0 29.0 0.00 0.00 0.00 58 972.2
20260504200400 82 172 15.0 29.0 0.00 0.00 0.00 57 972.2
20260504195853 81 161 15.0 25.0 0.00 0.00 0.00 57 972.3
20260504195347 81 159 14.0 25.0 0.00 0.00 0.00 57 972.4
20260504194842 81 196 13.0 22.0 0.00 0.00 0.00 57 972.6
20260504194336 80 154 14.0 26.0 0.00 0.00 0.00 59 972.7
20260504193829 80 205 14.0 26.0 0.00 0.00 0.00 58 972.9
20260504192817 80 223 15.0 27.0 0.00 0.00 0.00 57 973.0
20260504192311 80 168 14.0 27.0 0.00 0.00 0.00 58 973.1
20260504191806 80 169 14.0 24.0 0.00 0.00 0.00 58 973.2
20260504191300 80 182 14.0 25.0 0.00 0.00 0.00 59 973.2
20260504190753 80 193 13.0 25.0 0.00 0.00 0.00 58 973.3
20260504185741 80 185 13.0 24.0 0.00 0.00 0.00 57 973.2
20260504184730 80 221 13.0 22.0 0.00 0.00 0.00 58 973.4
20260504184224 80 155 13.0 24.0 0.00 0.00 0.00 58 973.5
20260504183719 79 169 13.0 24.0 0.00 0.00 0.00 59 973.6
20260504183211 79 191 13.0 24.0 0.00 0.00 0.00 59 973.7
20260504182159 79 175 12.0 21.0 0.00 0.00 0.00 59 973.7
20260504181653 78 153 13.0 21.0 0.00 0.00 0.00 61 973.9
20260504181147 77 193 13.0 26.0 0.00 0.00 0.00 61 973.9
20260504180641 77 173 13.0 26.0 0.00 0.00 0.00 60 974.0
20260504180135 77 173 14.0 24.0 0.00 0.00 0.00 60 974.1
20260504175134 77 0 13.0 23.0 0.00 0.00 0.00 61 974.4
20260504174634 77 0 12.0 24.0 0.00 0.00 0.00 61 974.5
20260504173634 76 186 14.0 29.0 0.00 0.00 0.00 61 974.5
20260504173134 76 211 14.0 24.0 0.00 0.00 0.00 61 974.5
20260504172634 76 176 14.0 24.0 0.00 0.00 0.00 61 974.5
20260504172134 76 198 15.0 27.0 0.00 0.00 0.00 61 974.6
20260504171634 75 186 14.0 27.0 0.00 0.00 0.00 61 974.8
20260504171135 75 172 12.0 24.0 0.00 0.00 0.00 61 974.8
20260504170634 75 173 13.0 26.0 0.00 0.00 0.00 62 975.0
20260504170133 75 162 14.0 26.0 0.00 0.00 0.00 62 974.9
20260504141029 67 186 13.0 22.0 0.00 0.00 0.00 70 976.5
20260504140529 67 215 12.0 25.0 0.00 0.00 0.00 70 976.3
20260504130518 62 221 7.0 14.0 0.00 0.00 0.00 74 976.2
20260504110420 61 224 6.0 15.0 0.00 0.00 0.00 71 975.9
20260504100309 60 223 5.0 11.0 0.00 0.00 0.00 71 976.6
20260504050447 64 225 4.0 9.0 0.00 0.00 0.00 61 979.2
20260504045445 64 209 5.0 11.0 0.00 0.00 0.00 60 979.2
20260504044945 65 208 5.0 11.0 0.00 0.00 0.00 60 979.2
20260504044445 65 183 5.0 11.0 0.00 0.00 0.00 59 979.3
20260504043946 65 198 6.0 10.0 0.00 0.00 0.00 59 979.3
20260504043448 65 228 6.0 11.0 0.00 0.00 0.00 58 979.4
20260504042941 65 233 5.0 11.0 0.00 0.00 0.00 58 979.4
20260504041930 65 224 5.0 13.0 0.00 0.00 0.00 57 979.4
20260504041425 66 215 5.0 10.0 0.00 0.00 0.00 57 979.6
20260504040919 66 240 5.0 12.0 0.00 0.00 0.00 56 979.5
20260504035907 66 202 5.0 9.0 0.00 0.00 0.00 57 979.7
20260504035400 66 207 4.0 9.0 0.00 0.00 0.00 57 979.7
20260504034852 65 213 4.0 9.0 0.00 0.00 0.00 57 979.8
20260504034347 66 213 4.0 9.0 0.00 0.00 0.00 57 979.7
20260504033348 66 217 4.0 11.0 0.00 0.00 0.00 56 979.7
20260504032847 66 218 4.0 10.0 0.00 0.00 0.00 56 979.7
20260504032347 66 204 4.0 8.0 0.00 0.00 0.00 56 979.7
20260504031345 67 218 4.0 9.0 0.00 0.00 0.00 55 979.6
20260504030846 67 214 5.0 9.0 0.00 0.00 0.00 55 979.6
20260504025843 68 215 5.0 9.0 0.00 0.00 0.00 54 979.5
20260504025345 68 208 5.0 8.0 0.00 0.00 0.00 54 979.5
20260504024841 68 213 4.0 8.0 0.00 0.00 0.00 53 979.5
20260504023842 69 198 6.0 10.0 0.00 0.00 0.00 52 979.3
20260504023341 69 200 6.0 9.0 0.00 0.00 0.00 52 979.4
20260504022840 70 206 5.0 9.0 0.00 0.00 0.00 50 979.3
20260504022339 70 202 5.0 10.0 0.00 0.00 0.00 49 979.3
20260504021833 70 215 4.0 10.0 0.00 0.00 0.00 50 979.2
20260504021327 70 200 4.0 8.0 0.00 0.00 0.00 50 979.1
20260504020820 69 199 3.0 6.0 0.00 0.00 0.00 51 979.1
20260504020314 69 212 3.0 5.0 0.00 0.00 0.00 51 979.1
20260504015809 69 213 3.0 5.0 0.00 0.00 0.00 52 979.0
20260504015304 70 211 3.0 5.0 0.00 0.00 0.00 51 979.1
20260504014757 70 209 3.0 5.0 0.00 0.00 0.00 51 979.1
20260504014251 70 211 3.0 5.0 0.00 0.00 0.00 50 979.0
20260504013745 71 219 2.0 5.0 0.00 0.00 0.00 50 979.0
20260504013238 71 217 2.0 5.0 0.00 0.00 0.00 49 979.0